Location: Casalecchio di Reno
(44.4760°N, 11.2757°E)
Time: 16:45:08
(UTC+02:00)

DX 1 - Pass Details

Date: 25 June 2024
Orbit: 607 x 619 km, 98.3° (Epoch: 19 July)

Event Time Altitude Azimuth Distance (km) Brightness Sun altitude
Rises 00:12:23 0° 32° (NNE) 2,876 ? -20.5°
Reaches altitude 10° 00:15:27 10° 56° (NE) 1,966 ? -20.7°
Enters shadow 00:17:54 15° 91° (E) 1,663 ? -20.8°
